map of REP home
Great Circle Mapper logo
REP - Airport
Location
City:  Siem Reap, Cambodia
Name:Angkor International Airport
ICAO / IATA:VDSR / REP

Details
Type:Airport (Aerodrome, Airfield)
Use:International (customs port of entry)
Latitude:1324'38"N (13.410666)
Longitude:10348'46"E (103.812840)
Datum:WGS 1984
Elevation:60 ft (18 m)
Variation:0.59W (WMM2015 magnetic declination)
-0.01 annual change
Runways:1
Longest:8366 × 148 ft (2550 × 45 m), paved

Time
Time Zone:UTC+7
Local Time:

Weather
METAR:VDSR 070530Z 17006KT 130V240 9999 SCT017 FEW020CB 36/21 Q1006 CB NE
TAF:VDSR 070500Z 0706/0724 22006KT 9999 SCT017
TEMPO 0708/0713 5000 TSRA SCT015 FEW017CB SCT040

Related Locations
Nearby:
Farthest:PIO: 12447 mi / 20032 km
Pisco [Pisco Airport], ICA, PE

Find:

   beyond  
but within

Other Information
Maps:
NOTAMs:
Links:
Sources:

  
flag of Cambodia   

Sectional Chart

Flight Planning
at skyvector.com

Satellite Image

Google Maps Satellite View

 

Copyright © 2004-2015 Karl L. Swartz. All rights reserved.
The Great Circle Mapper name and logo are trademarks of the Great Circle Mapper.
All other trademarks mentioned herein belong to their respective owners.
Please see credits for attibutions and further copyright information.

  Follow gcmap on Facebook Follow gcmap on Twitter Follow gcmap on Google+

hCard Microformat

Geo Microformat